Starlink 33595

operational
NORAD ID: 62766 Int'l Des: 2025-015 Owner: SPXS Country: US Constellation: starlink
LEOCIRCULAR

Über Starlink 33595

Beschreibung wird geladen...

Live-Position

3D-Globus wird geladen...

Nächste Überflüge

Höhenverlauf

Altitude vs Time

uPlot chart will show altitude changes over time

Zweizeiliger Elementsatz

1 62766U 25015J 25354.26765175 .00025359 00000-0 86534-3 0 9991
2 62766 53.1631 331.1969 0000763 84.5341 275.5747 15.30202003 52326
Epoch: 20. Dez. 2025 • Age: 11 hours

Aktueller Status

Höhe 494.2 km
Geschwindigkeit 7.62 km/s
Subsatellitenpunkt -53.31°S, 106.38°W
Startdatum 21. Jan. 2025
Alter 0.9 years
Typ internet

Technische Details

Klassifizierung Payload
Masse 575.00 kg
Trockenmasse 530.00 kg
Gesamtmasse 575.00 kg
Länge 0.30 m
Durchmesser 4.10 m
Spannweite 29.00 m
Form Box + pan
Hersteller SPXS
Bus-Typ Starlink V2MO
Phasenstatus In Orbit
Besitzer/Staat SPXS/US

Große Konstellationen

Loading constellations...